Location: Newark
(39.6867°N, 100.6772°W)
Time: 00:56:10
(UTC+00:00)

Explorer 11/Cluster Stage 4 - Pass Details

Date: 29 October 2019
Orbit: 467 x 1259 km, 28.8° (Epoch: 14 November)

Event Time Altitude Azimuth Distance (km) Brightness Sun altitude
Rises 12:01:49 0° 234° (SW) 3,397 - -13.2°
Exits shadow 12:03:20 - 228° (SW) 2,882 9.1 -12.9°
Reaches altitude 10° 12:05:15 10° 217° (SW) 2,291 8.7 -12.6°
Maximum altitude 12:08:55 19° 174° (S) 1,599 8.3 -11.9°
Drops below altitude 10° 12:12:07 10° 129° (SE) 1,960 9.6 -11.3°
Sets 12:14:47 0° 110° (ESE) 2,745 11.3 -10.8°
